Hourly Weather Idzhewan

Today, 5 August, Wednesday

Time Temperature Precipitation Wind Pressure Humidity
00:00 +17°C° 0.1 mm 0 mps 691 mmHg 90%
01:00 +17°C° 0 mm 0 mps 691 mmHg 91%
02:00 +17°C° 0 mm 0 mps 691 mmHg 91%
03:00 +16°C° 0 mm 0 mps 690 mmHg 92%
04:00 +16°C° 0 mm 0 mps 690 mmHg 92%
05:00 +16°C° 0 mm 0 mps 690 mmHg 91%
06:00 +16°C° 0 mm 0 mps 690 mmHg 91%
07:00 +20°C° 0 mm 1 mps 690 mmHg 85%
08:00 +21°C° 0 mm 1 mps 690 mmHg 79%
09:00 +21°C° 0 mm 2 mps 690 mmHg 72%
10:00 +23°C° 0.1 mm 2 mps 690 mmHg 70%
11:00 +24°C° 0.1 mm 2 mps 690 mmHg 68%
12:00 +24°C° 0.1 mm 2 mps 689 mmHg 67%
13:00 +25°C° 0 mm 2 mps 689 mmHg 64%
14:00 +25°C° 0 mm 2 mps 689 mmHg 60%
15:00 +26°C° 0 mm 2 mps 689 mmHg 57%
16:00 +26°C° 0 mm 2 mps 689 mmHg 60%
17:00 +25°C° 0 mm 2 mps 689 mmHg 62%
18:00 +25°C° 0 mm 2 mps 689 mmHg 64%
19:00 +23°C° 0 mm 1 mps 689 mmHg 69%
20:00 +21°C° 0 mm 1 mps 689 mmHg 74%
21:00 +19°C° 0 mm 1 mps 689 mmHg 79%
22:00 +19°C° 0 mm 1 mps 690 mmHg 79%
23:00 +19°C° 0 mm 1 mps 690 mmHg 79%

Tomorrow, 6 August, Thursday

Time Temperature Precipitation Wind Pressure Humidity
00:00 +19°C° 0 mm 1 mps 690 mmHg 79%
01:00 +18°C° 0 mm 1 mps 690 mmHg 80%
02:00 +18°C° 0 mm 1 mps 690 mmHg 80%
03:00 +16°C° 0 mm 0 mps 690 mmHg 80%
04:00 +16°C° 0 mm 0 mps 690 mmHg 80%
05:00 +18°C° 0 mm 1 mps 690 mmHg 81%
06:00 +19°C° 0 mm 1 mps 691 mmHg 81%
07:00 +20°C° 0 mm 1 mps 691 mmHg 75%
08:00 +21°C° 0 mm 2 mps 691 mmHg 69%
09:00 +24°C° 0 mm 2 mps 692 mmHg 63%
10:00 +25°C° 0 mm 2 mps 692 mmHg 61%
11:00 +25°C° 0 mm 2 mps 691 mmHg 59%
12:00 +26°C° 0 mm 3 mps 691 mmHg 58%
13:00 +26°C° 0 mm 2 mps 691 mmHg 57%
14:00 +27°C° 0 mm 2 mps 691 mmHg 56%
15:00 +27°C° 0 mm 2 mps 691 mmHg 55%
16:00 +27°C° 0 mm 2 mps 691 mmHg 57%
17:00 +26°C° 0 mm 2 mps 692 mmHg 60%
18:00 +25°C° 0 mm 2 mps 692 mmHg 63%
19:00 +24°C° 0 mm 2 mps 692 mmHg 68%
20:00 +22°C° 0 mm 1 mps 692 mmHg 72%
21:00 +20°C° 0 mm 1 mps 693 mmHg 77%
22:00 +20°C° 0 mm 1 mps 693 mmHg 77%
23:00 +20°C° 0 mm 1 mps 693 mmHg 78%

Day after tomorrow, 7 August, Friday

Time Temperature Precipitation Wind Pressure Humidity
00:00 +19°C° 0 mm 1 mps 693 mmHg 79%
01:00 +19°C° 0 mm 1 mps 693 mmHg 80%
02:00 +19°C° 0 mm 1 mps 693 mmHg 81%
03:00 +18°C° 0 mm 1 mps 693 mmHg 82%
04:00 +19°C° 0 mm 1 mps 693 mmHg 81%
05:00 +19°C° 0 mm 1 mps 694 mmHg 81%
06:00 +19°C° 0 mm 1 mps 694 mmHg 81%
07:00 +21°C° 0 mm 1 mps 694 mmHg 75%
08:00 +23°C° 0 mm 2 mps 694 mmHg 70%
09:00 +24°C° 0 mm 2 mps 694 mmHg 64%
10:00 +25°C° 0 mm 2 mps 694 mmHg 62%
11:00 +26°C° 0 mm 2 mps 694 mmHg 60%
12:00 +27°C° 0 mm 2 mps 694 mmHg 58%
13:00 +27°C° 0 mm 2 mps 693 mmHg 55%
14:00 +28°C° 0 mm 2 mps 693 mmHg 53%
15:00 +28°C° 0 mm 2 mps 693 mmHg 51%
16:00 +28°C° 0 mm 2 mps 693 mmHg 54%
17:00 +27°C° 0 mm 2 mps 693 mmHg 57%
18:00 +27°C° 0 mm 1 mps 693 mmHg 59%
19:00 +25°C° 0 mm 1 mps 693 mmHg 64%
20:00 +23°C° 0 mm 1 mps 693 mmHg 69%
21:00 +21°C° 0 mm 1 mps 693 mmHg 74%
22:00 +21°C° 0 mm 1 mps 693 mmHg 75%
23:00 +20°C° 0 mm 2 mps 693 mmHg 75%

8 August, Saturday

Time Temperature Precipitation Wind Pressure Humidity
00:00 +19°C° 0 mm 2 mps 693 mmHg 76%
01:00 +19°C° 0 mm 2 mps 692 mmHg 77%
02:00 +20°C° 0 mm 1 mps 692 mmHg 77%
03:00 +19°C° 0 mm 1 mps 692 mmHg 78%
04:00 +20°C° 0 mm 1 mps 692 mmHg 78%
05:00 +20°C° 0 mm 1 mps 692 mmHg 77%
06:00 +20°C° 0 mm 1 mps 692 mmHg 77%
07:00 +21°C° 0 mm 2 mps 692 mmHg 70%
08:00 +24°C° 0 mm 2 mps 692 mmHg 63%
09:00 +26°C° 0 mm 2 mps 692 mmHg 56%
10:00 +27°C° 0 mm 2 mps 692 mmHg 53%
11:00 +28°C° 0 mm 2 mps 692 mmHg 51%
12:00 +29°C° 0 mm 3 mps 692 mmHg 48%
13:00 +30°C° 0 mm 3 mps 691 mmHg 47%
14:00 +30°C° 0 mm 3 mps 691 mmHg 47%
15:00 +30°C° 0 mm 2 mps 690 mmHg 46%
16:00 +30°C° 0 mm 2 mps 690 mmHg 49%
17:00 +29°C° 0 mm 2 mps 690 mmHg 53%
18:00 +28°C° 0 mm 2 mps 689 mmHg 56%
19:00 +26°C° 0 mm 1 mps 689 mmHg 60%
20:00 +24°C° 0 mm 1 mps 689 mmHg 64%
21:00 +23°C° 0 mm 1 mps 689 mmHg 69%
22:00 +22°C° 0 mm 1 mps 689 mmHg 70%
23:00 +22°C° 0 mm 1 mps 689 mmHg 71%

9 August, Sunday

Time Temperature Precipitation Wind Pressure Humidity
00:00 +21°C° 0 mm 2 mps 689 mmHg 72%
01:00 +21°C° 0 mm 1 mps 689 mmHg 73%
02:00 +21°C° 0 mm 1 mps 689 mmHg 75%
03:00 +20°C° 0 mm 1 mps 689 mmHg 76%
04:00 +21°C° 0 mm 1 mps 689 mmHg 76%
05:00 +21°C° 0 mm 1 mps 689 mmHg 75%
06:00 +21°C° 0 mm 1 mps 689 mmHg 75%
07:00 +23°C° 0 mm 1 mps 689 mmHg 69%
08:00 +25°C° 0 mm 1 mps 689 mmHg 63%
09:00 +26°C° 0 mm 2 mps 689 mmHg 57%
10:00 +27°C° 0 mm 2 mps 688 mmHg 55%
11:00 +28°C° 0 mm 2 mps 688 mmHg 53%
12:00 +29°C° 0 mm 2 mps 688 mmHg 51%
13:00 +30°C° 0 mm 2 mps 688 mmHg 50%
14:00 +31°C° 0 mm 2 mps 687 mmHg 50%
15:00 +31°C° 0 mm 2 mps 687 mmHg 49%
16:00 +30°C° 0.1 mm 2 mps 687 mmHg 52%
17:00 +29°C° 0.1 mm 2 mps 687 mmHg 54%
18:00 +28°C° 0.1 mm 2 mps 687 mmHg 56%
19:00 +27°C° 0 mm 2 mps 687 mmHg 58%
20:00 +25°C° 0 mm 2 mps 687 mmHg 60%
21:00 +23°C° 0 mm 2 mps 687 mmHg 63%
22:00 +23°C° 0 mm 1 mps 687 mmHg 63%
23:00 +22°C° 0 mm 1 mps 687 mmHg 64%

10 August, Monday

Time Temperature Precipitation Wind Pressure Humidity
00:00 +20°C° 0 mm 0 mps 687 mmHg 64%
01:00 +21°C° 0 mm 1 mps 687 mmHg 65%
02:00 +21°C° 0 mm 1 mps 687 mmHg 67%
03:00 +21°C° 0 mm 1 mps 687 mmHg 68%
04:00 +21°C° 0 mm 1 mps 687 mmHg 70%
05:00 +21°C° 0 mm 1 mps 687 mmHg 72%
06:00 +21°C° 0 mm 1 mps 687 mmHg 74%
07:00 +23°C° 0 mm 1 mps 688 mmHg 69%
08:00 +24°C° 0 mm 1 mps 688 mmHg 64%
09:00 +26°C° 0 mm 2 mps 688 mmHg 60%
10:00 +27°C° 0 mm 2 mps 688 mmHg 57%
11:00 +28°C° 0 mm 2 mps 688 mmHg 55%
12:00 +29°C° 0 mm 3 mps 687 mmHg 53%
13:00 +30°C° 0.1 mm 3 mps 687 mmHg 52%
14:00 +30°C° 0.1 mm 3 mps 687 mmHg 51%
15:00 +31°C° 0.1 mm 3 mps 687 mmHg 50%
16:00 +30°C° 0 mm 3 mps 687 mmHg 53%
17:00 +29°C° 0 mm 2 mps 687 mmHg 56%
18:00 +28°C° 0 mm 2 mps 687 mmHg 59%
19:00 +27°C° 0 mm 2 mps 687 mmHg 63%
20:00 +25°C° 0 mm 1 mps 688 mmHg 67%
21:00 +23°C° 0 mm 1 mps 688 mmHg 72%
22:00 +23°C° 0 mm 1 mps 688 mmHg 73%
23:00 +22°C° 0 mm 1 mps 688 mmHg 74%
Show more